Sarasota, FL

10:33 AM EST on November 22, 2019 (GMT -0500)
Sarasota-bradenton

Weather History for KSRQ - September, 2019

Change the Weather History Date:

Friday, September 20, 2019

  Actual Average Record
Temperature  
Mean Temperature 80 °F 81 °F  
Max Temperature 87 °F 89 °F 96 °F (1925)
Min Temperature 73 °F 74 °F 60 °F (1981)
Degree Days  
Heating Degree Days 0 0  
Month to date heating degree days 0 0  
Since 1 July heating degree days 0 0  
Cooling Degree Days 15 16  
Month to date cooling degree days 421 337  
Year to date cooling degree days 3279 2634  
Growing Degree Days 30 (Base 50)    
Moisture  
Dew Point 69 °F    
Average Humidity 71    
Maximum Humidity 84    
Minimum Humidity 55    
Precipitation  
Precipitation 0.08 in 0.20 in 3.27 in (1962)
Month to date precipitation 1.99 5.43  
Year to date precipitation 43.38 43.76  
Sea Level Pressure  
Sea Level Pressure 30.04 in    
Wind  
Wind Speed 10 mph ()    
Max Wind Speed 28 mph    
Max Gust Speed 38 mph    
Visibility 9.8 miles    
Events Rain    
T = Trace of Precipitation, MM = Missing Value Source: Averaged Metar Reports

Daily Weather History Graph

Daily Weather History Graph

Search for Another Location

Airport or City:

Astronomy

Sep. 20, 2019 Rise Set
Actual Time 7:17 AM EDT 7:29 PM EDT
Civil Twilight 6:54 AM EDT 7:52 PM EDT
Nautical Twilight 6:27 AM EDT 8:19 PM EDT
Astronomical Twilight 5:59 AM EDT 8:47 PM EDT
Moon 11:49 PM EDT (9/20) 12:51 PM EDT (9/20)
Length of Visible Light 12h 58m
Length of Day
12h 11m
Waning Gibbous, 65% of the Moon is Illuminated
Sep 20
Waning Gibbous
Sep 21
Last Quarter
Sep 28
New
Oct 5
First Quarter
Oct 13
Full

Hourly Weather History & Observations

Time (EDT) Temp. Heat Index Dew Point Humidity Pressure Visibility Wind Dir Wind Speed Gust Speed Precip Events Conditions
12:53 AM 78.1 °F - 64.9 °F 64% 30.01 in 10.0 mi ENE 6.9 mph - N/A   Overcast
1:53 AM 75.9 °F - 66.9 °F 74% 30.01 in 10.0 mi NE 8.1 mph - N/A   Clear
2:53 AM 73.9 °F - 66.9 °F 79% 29.99 in 10.0 mi NE 5.8 mph - N/A   Clear
3:53 AM 73.9 °F - 68.0 °F 82% 29.98 in 10.0 mi ENE 9.2 mph - N/A   Clear
4:53 AM 75.0 °F - 68.0 °F 79% 29.98 in 10.0 mi ENE 9.2 mph - N/A   Clear
5:53 AM 73.9 °F - 68.0 °F 82% 29.99 in 10.0 mi ENE 10.4 mph - N/A   Clear
6:53 AM 75.0 °F - 69.1 °F 82% 30.01 in 10.0 mi NE 9.2 mph - N/A   Partly Cloudy
7:53 AM 75.0 °F - 69.1 °F 82% 30.03 in 10.0 mi NE 10.4 mph - N/A   Clear
8:53 AM 78.1 °F - 70.0 °F 76% 30.04 in 10.0 mi ENE 12.7 mph - N/A   Clear
9:53 AM 82.0 °F 85.9 °F 70.0 °F 67% 30.04 in 10.0 mi East 19.6 mph 26.5 mph N/A   Clear
10:53 AM 82.9 °F 87.0 °F 70.0 °F 65% 30.06 in 10.0 mi East 15.0 mph 27.6 mph N/A   Mostly Cloudy
11:53 AM 84.0 °F 88.4 °F 70.0 °F 63% 30.07 in 10.0 mi East 17.3 mph 23.0 mph N/A   Overcast
12:53 PM 82.0 °F 87.4 °F 73.0 °F 74% 30.06 in 10.0 mi ENE 10.4 mph - 0.03 in   Overcast
1:53 PM 79.0 °F - 73.0 °F 82% 30.06 in 5.0 mi ESE 16.1 mph 31.1 mph 0.01 in Rain Light Rain
2:53 PM 82.9 °F 88.0 °F 72.0 °F 69% 30.04 in 10.0 mi East 11.5 mph 19.6 mph 0.01 in   Mostly Cloudy
3:32 PM 78.1 °F - 72.0 °F 81% 30.03 in 10.0 mi ESE 12.7 mph - 0.02 in Rain Light Rain
3:53 PM 81.0 °F 85.8 °F 73.0 °F 77% 30.03 in 10.0 mi East 12.7 mph - 0.02 in   Mostly Cloudy
4:53 PM 81.0 °F 84.1 °F 69.1 °F 67% 30.04 in 10.0 mi East 18.4 mph - 0.01 in   Overcast
5:53 PM 84.0 °F 86.5 °F 66.9 °F 56% 30.03 in 10.0 mi East 15.0 mph 21.9 mph N/A   Overcast
6:53 PM 82.9 °F 85.4 °F 66.9 °F 58% 30.03 in 10.0 mi ENE 13.8 mph - N/A   Scattered Clouds
7:53 PM 82.0 °F 84.1 °F 66.0 °F 58% 30.05 in 10.0 mi ENE 10.4 mph - N/A   Clear
8:53 PM 80.1 °F 82.1 °F 66.0 °F 62% 30.07 in 10.0 mi ENE 10.4 mph - N/A   Clear
9:53 PM 78.1 °F - 66.0 °F 66% 30.08 in 10.0 mi ENE 9.2 mph - N/A   Clear
10:53 PM 78.1 °F - 66.0 °F 66% 30.09 in 10.0 mi ENE 10.4 mph - N/A   Clear
11:53 PM 77.0 °F - 66.0 °F 69% 30.09 in 10.0 mi ENE 9.2 mph - N/A   Clear